Wadena, MN

7:08 AM CST on December 16, 2017 (GMT -0600)
Wadena Municipal

Weather History for KADC - December, 2012

Change the Weather History Date:

Saturday, December 29, 2012

  Actual Average Record
Temperature  
Mean Temperature 0 °F -  
Max Temperature 8 °F 18 °F 41 °F (1965)
Min Temperature -7 °F 0 °F -28 °F (1938)
Degree Days  
Heating Degree Days 64    
Moisture  
Dew Point 0 °F    
Average Humidity 87    
Maximum Humidity 92    
Minimum Humidity 72    
Precipitation  
Precipitation 0.00 in - - ()
Sea Level Pressure  
Sea Level Pressure 30.02 in    
Wind  
Wind Speed 6 mph (West)    
Max Wind Speed 12 mph    
Max Gust Speed -    
Visibility 7 miles    
Events Snow    
Averages and records for this station are not official NWS values.
T = Trace of Precipitation, MM = Missing Value Source: NWS Daily Summary

Daily Weather History Graph

Daily Weather History Graph

Search for Another Location

Airport or City:

Trip Planner

Search our weather history database for the weather conditions in past years. The results will help you decide how hot, cold, wet, or windy it might be!

Date:

Astronomy

Dec. 29, 2012 Rise Set
Actual Time 8:04 AM CST 4:42 PM CST
Civil Twilight 7:29 AM CST 5:17 PM CST
Nautical Twilight 6:51 AM CST 5:55 PM CST
Astronomical Twilight 6:14 AM CST 6:32 PM CST
Moon 6:22 PM CST (12/29) 8:32 AM CST (12/29)
Length of Visible Light 9h 47m
Length of Day
8h 37m
Full, 98% of the Moon is Illuminated
Dec 29
Full
Jan 4
Last Quarter
Jan 11
New
Jan 18
First Quarter
Jan 26
Full

Hourly Weather History & Observations

Time (CST) Temp. Windchill Dew Point Humidity Pressure Visibility Wind Dir Wind Speed Gust Speed Precip Events Conditions
12:14 AM 8.6 °F -1.3 °F 6.8 °F 92% 30.00 in 7.0 mi West 5.8 mph - N/A Snow Light Snow
12:34 AM 8.6 °F -1.3 °F 6.8 °F 92% 30.00 in 7.0 mi West 5.8 mph - N/A Snow Light Snow
12:53 AM 8.6 °F -2.6 °F 6.8 °F 92% 29.99 in 7.0 mi West 6.9 mph - N/A Snow Light Snow
1:14 AM 8.6 °F 0.1 °F 6.8 °F 92% 29.99 in 7.0 mi WSW 4.6 mph - N/A Snow Light Snow
1:34 AM 8.6 °F -1.3 °F 6.8 °F 92% 29.99 in 7.0 mi West 5.8 mph - N/A Snow Light Snow
1:53 AM 8.6 °F -3.7 °F 6.8 °F 92% 30.00 in 7.0 mi West 8.1 mph - N/A Snow Light Snow
2:15 AM 8.6 °F -2.6 °F 6.8 °F 92% 29.99 in 5.0 mi West 6.9 mph - N/A Snow Light Snow
2:35 AM 8.6 °F -1.3 °F 6.8 °F 92% 29.99 in 4.0 mi WSW 5.8 mph - N/A Snow Light Snow
2:53 AM 8.6 °F -1.3 °F 6.8 °F 92% 29.99 in 7.0 mi WSW 5.8 mph - N/A Snow Light Snow
3:14 AM 8.6 °F -3.7 °F 6.8 °F 92% 29.99 in 5.0 mi WSW 8.1 mph - N/A Snow Light Snow
3:35 AM 8.6 °F -2.6 °F 6.8 °F 92% 29.99 in 4.0 mi West 6.9 mph - N/A Snow Light Snow
3:52 AM 8.6 °F -6.3 °F 6.8 °F 92% 29.99 in 5.0 mi West 11.5 mph - N/A Snow Light Snow
4:15 AM 8.6 °F -3.7 °F 6.8 °F 92% 29.99 in 3.0 mi West 8.1 mph - N/A Snow Light Snow
4:32 AM 8.6 °F -3.7 °F 6.8 °F 92% 29.98 in 5.0 mi West 8.1 mph - N/A Snow Light Snow
4:53 AM 8.6 °F -3.7 °F 5.0 °F 85% - 4.0 mi SW 8.1 mph - N/A Snow Light Snow
5:15 AM 8.6 °F -1.3 °F 5.0 °F 85% 29.97 in 5.0 mi WSW 5.8 mph - N/A Snow Light Snow
5:35 AM 6.8 °F -6.9 °F 5.0 °F 92% 29.98 in 7.0 mi West 9.2 mph - N/A Snow Light Snow
5:52 AM 6.8 °F -5.9 °F 3.2 °F 85% 29.98 in 7.0 mi WSW 8.1 mph - N/A Snow Light Snow
6:09 AM 3.2 °F -9.1 °F 1.4 °F 92% 29.98 in 7.0 mi West 6.9 mph - N/A Snow Light Snow
6:27 AM 3.2 °F -7.8 °F 1.4 °F 92% 29.99 in 7.0 mi WSW 5.8 mph - N/A   Clear
6:53 AM 1.4 °F -6.2 °F -0.4 °F 92% 29.99 in 7.0 mi WSW 3.5 mph - N/A   Clear
7:15 AM 1.4 °F -6.2 °F -0.4 °F 92% 29.99 in 7.0 mi SW 3.5 mph - N/A   Clear
7:29 AM 1.4 °F -8.3 °F -2.2 °F 85% 29.99 in 7.0 mi WSW 4.6 mph - N/A   Clear
7:53 AM -0.4 °F -8.3 °F -2.2 °F 92% 29.99 in 7.0 mi WSW 3.5 mph - N/A   Clear
8:15 AM -0.4 °F -8.3 °F -4.0 °F 85% 30.00 in 3.0 mi WSW 3.5 mph - N/A Snow Light Snow
8:35 AM -0.4 °F -12.0 °F -2.2 °F 92% 30.00 in 4.0 mi West 5.8 mph - N/A Snow Light Snow
8:52 AM 1.4 °F -11.3 °F -2.2 °F 85% 30.01 in 2.0 mi West 6.9 mph - N/A Snow Light Snow
9:15 AM 1.4 °F -9.9 °F -0.4 °F 92% 30.01 in 2.5 mi West 5.8 mph - N/A Snow Light Snow
9:34 AM 1.4 °F -6.2 °F -2.2 °F 85% 30.01 in 4.0 mi WSW 3.5 mph - N/A Snow Light Snow
9:53 AM 1.4 °F -8.3 °F -0.4 °F 92% 30.02 in 7.0 mi WSW 4.6 mph - N/A Snow Light Snow
10:15 AM 3.2 °F -9.1 °F 1.4 °F 92% 30.02 in 10.0 mi West 6.9 mph - N/A   Mostly Cloudy
10:35 AM 3.2 °F -12.2 °F 1.4 °F 92% 30.03 in 10.0 mi West 10.4 mph - N/A   Overcast
10:52 AM 3.2 °F -10.3 °F -0.4 °F 85% 30.02 in 10.0 mi West 8.1 mph - N/A   Overcast
11:15 AM 3.2 °F -10.3 °F -0.4 °F 85% 30.02 in 4.0 mi West 8.1 mph - N/A Snow Light Snow
11:35 AM 3.2 °F -10.3 °F -0.4 °F 85% 30.02 in 3.0 mi West 8.1 mph - N/A Snow Light Snow
11:53 AM 3.2 °F -9.1 °F -0.4 °F 85% 30.01 in 4.0 mi West 6.9 mph - N/A Snow Light Snow
12:15 PM 3.2 °F -10.3 °F -0.4 °F 85% 30.00 in 4.0 mi West 8.1 mph - N/A Snow Light Snow
12:35 PM 3.2 °F -9.1 °F 1.4 °F 92% 30.00 in 4.0 mi West 6.9 mph - N/A Snow Light Snow
12:52 PM 5.0 °F -8.1 °F -0.4 °F 78% 30.00 in 5.0 mi West 8.1 mph - N/A Snow Light Snow
1:15 PM 6.8 °F -4.8 °F -0.4 °F 72% 29.99 in 10.0 mi West 6.9 mph - N/A   Clear
1:35 PM 6.8 °F -7.8 °F 1.4 °F 79% 29.99 in 7.0 mi West 10.4 mph - N/A Snow Light Snow
1:52 PM 6.8 °F -5.9 °F 1.4 °F 79% 30.00 in 5.0 mi West 8.1 mph - N/A Snow Light Snow
2:15 PM 8.6 °F -3.7 °F 1.4 °F 73% 30.00 in 10.0 mi WNW 8.1 mph - N/A Snow Light Snow
2:35 PM 6.8 °F -6.9 °F 1.4 °F 79% 30.00 in 10.0 mi WNW 9.2 mph - N/A Snow Light Snow
2:52 PM 6.8 °F -4.8 °F 1.4 °F 79% 30.00 in 5.0 mi West 6.9 mph - N/A Snow Light Snow
3:15 PM 6.8 °F -5.9 °F 1.4 °F 79% 30.00 in 5.0 mi West 8.1 mph - N/A Snow Light Snow
3:35 PM 6.8 °F -4.8 °F 1.4 °F 79% 30.01 in 7.0 mi West 6.9 mph - N/A Snow Light Snow
3:53 PM 5.0 °F -4.1 °F -0.4 °F 78% 30.02 in 4.0 mi WNW 4.6 mph - N/A Snow Light Snow
4:15 PM 5.0 °F -5.6 °F -0.4 °F 78% 30.02 in 5.0 mi WNW 5.8 mph - N/A Snow Light Snow
4:35 PM 3.2 °F -6.2 °F -0.4 °F 85% 30.02 in 10.0 mi WNW 4.6 mph - N/A   Clear
4:53 PM 3.2 °F -6.2 °F -0.4 °F 85% 30.03 in 10.0 mi West 4.6 mph - N/A   Clear
5:14 PM 1.4 °F -8.3 °F -0.4 °F 92% 30.03 in 10.0 mi WNW 4.6 mph - N/A   Clear
5:35 PM 1.4 °F -6.2 °F -0.4 °F 92% 30.03 in 10.0 mi West 3.5 mph - N/A   Clear
5:52 PM 1.4 °F -8.3 °F -2.2 °F 85% 30.04 in 10.0 mi West 4.6 mph - N/A   Clear
6:15 PM -2.2 °F -10.4 °F -4.0 °F 92% 30.04 in 10.0 mi WSW 3.5 mph - N/A   Clear
6:35 PM -2.2 °F -12.5 °F -5.8 °F 85% 30.05 in 10.0 mi WSW 4.6 mph - N/A   Clear
7:14 PM -2.2 °F -10.4 °F -5.8 °F 85% 30.05 in 10.0 mi WSW 3.5 mph - N/A   Clear
7:35 PM -2.2 °F -14.2 °F -7.6 °F 78% 30.06 in 10.0 mi WSW 5.8 mph - N/A   Clear
7:53 PM -4.0 °F -14.6 °F -7.6 °F 85% 30.06 in 10.0 mi West 4.6 mph - N/A   Clear
8:15 PM -4.0 °F -14.6 °F -7.6 °F 85% 30.06 in 10.0 mi West 4.6 mph - N/A   Clear
8:34 PM -4.0 °F - -7.6 °F 85% 30.05 in 10.0 mi Calm Calm - N/A   Clear
8:53 PM -5.8 °F -16.7 °F -7.6 °F 92% 30.06 in 10.0 mi WSW 4.6 mph - N/A   Clear
9:15 PM -5.8 °F - -7.6 °F 92% 30.05 in 10.0 mi Calm Calm - N/A   Clear
9:34 PM -5.8 °F - -9.4 °F 84% 30.05 in 10.0 mi Calm Calm - N/A   Clear
9:52 PM -7.6 °F -16.5 °F -9.4 °F 92% 30.06 in 10.0 mi SW 3.5 mph - N/A   Clear
10:15 PM -5.8 °F -14.5 °F -9.4 °F 84% 30.06 in 10.0 mi WSW 3.5 mph - N/A   Clear
10:35 PM -5.8 °F -16.7 °F -9.4 °F 84% 30.07 in 10.0 mi WSW 4.6 mph - N/A   Clear
10:52 PM -5.8 °F - -9.4 °F 84% 30.08 in 10.0 mi Calm Calm - N/A   Clear
11:15 PM -5.8 °F -14.5 °F -9.4 °F 84% 30.08 in 10.0 mi WSW 3.5 mph - N/A   Clear
11:35 PM -5.8 °F - -9.4 °F 84% 30.07 in 10.0 mi Calm Calm - N/A   Clear
11:53 PM -5.8 °F - -9.4 °F 84% 30.08 in 10.0 mi Calm Calm - N/A   Clear